Weather Roundup
Issued by NWS

Home | Current Version | Previous Version | Graphics & Text | Print | Product List | Glossary Off
Versions: 1 2 3 4 5 6 7 8 9 10 11 12 13 14 15 16 17 18 19 20 21 22 23 24 25 26 27 28 29 30 31 32 33 34 35 36 37 38 39 40 41 42 43 44 45 46 47 48 49 50

000
NZUS93 KARX 231910
HRRWXR

CURRENT HOURLY OBSERVATIONS ACROSS
MUCH OF THE UPPER MISSISSIPPI VALLEY
NATIONAL WEATHER SERVICE LA CROSSE WI
200 PM CDT WED APR 23 2014


...SOUTHEAST MINNESOTA...


CITY           SKY/WX    TMP DP  RH WIND       PRES   REMARKS
ROCHESTER      CLOUDY    44  30  57 SE18      30.06F
ROCHESTER/MAYO CLOUDY    44  28  54 E9        30.07F
WINONA         CLOUDY    48  30  49 SE8       30.10F
AUSTIN         CLOUDY    46  30  53 SE18      30.02F
ALBERT LEA     DRIZZLE   45  36  70 SE21      29.99F
DODGE CENTER   CLOUDY    46  36  66 SE14      30.05F
PRESTON        CLOUDY    46  30  52 SE9G22    30.07F
OWATONNA       DRIZZLE   43  36  75 E17G23    30.01F
FARIBAULT      CLOUDY    43  36  75 E10G17    30.04F
$$

...ELSEWHERE IN MINNESOTA...


CITY           SKY/WX    TMP DP  RH WIND       PRES   REMARKS
MINNEAPOLIS    LGT RAIN  42  37  82 SE16      30.06F
INTNL FALLS    CLOUDY    53  23  31 SE10      30.02F
DULUTH         PTSUNNY   49  27  42 E10       30.07F
RED WING       LGT RAIN  46  34  61 S7        30.08S
REDWOOD FALLS  LGT RAIN  44  36  73 E16G28    29.91F
MANKATO        CLOUDY    43  36  75 SE24      29.98F
WORTHINGTON    CLOUDY    48  30  49 SE28G37   29.85R
FAIRMONT       CLOUDY    46  32  57 SE24G37   29.93F
$$

...SOUTHWEST WISCONSIN...


CITY           SKY/WX    TMP DP  RH WIND       PRES   REMARKS
LA CROSSE      CLOUDY    52  29  41 S10       30.09F
PRAIRIE DU CHI CLOUDY    50  27  40 E10       30.09F
BOSCOBEL       CLOUDY    56  26  31 E10G16    30.11F
LONE ROCK      CLOUDY    54  25  32 E14       30.11F
PLATTEVILLE    CLOUDY    52  28  39 E9        30.11F
FORT MC COY    CLOUDY    54  20  26 SE12      30.10F
CAMP DOUGLAS   CLOUDY    54  23  30 VRB6      30.10F
VIROQUA        FAIR      50  24  37 SE9       30.10R
WIS DELLS      CLOUDY    53  23  31 E7        30.11F
$$

...ELSEWHERE IN WISCONSIN...


CITY           SKY/WX    TMP DP  RH WIND       PRES   REMARKS
MILWAUKEE      PTSUNNY   44  25  47 NE7       30.19F
MADISON        CLOUDY    53  24  32 E8        30.13F
GREEN BAY      MOSUNNY   48  27  44 VRB3      30.18F
EAU CLAIRE     CLOUDY    52  24  33 E10       30.08F
BLACK RVR FLS  FAIR      55  20  26 SE8       30.09F
MEDFORD        CLOUDY    48  26  42 SE7       30.10F
WAUSAU         CLOUDY    50  24  36 SE6       30.11F
WIS RAPIDS     CLOUDY    52  20  28 SE9       30.13F
MARSHFIELD     CLOUDY    50  25  37 SE9       30.11F
RICE LAKE      CLOUDY    51  24  34 SE13G20   30.10F
$$

...NORTHEAST IOWA...


CITY           SKY/WX    TMP DP  RH WIND       PRES   REMARKS
WATERLOO       CLOUDY    50  30  46 SE15      30.06F
DUBUQUE        CLOUDY    48  29  47 SE10      30.11F
DECORAH        CLOUDY    48  28  46 SE12G20   30.07F
MASON CITY       N/A     48  33  56 SE20G29   30.00F
CHARLES CITY   CLOUDY    48  32  53 SE18G24   30.05F
OELWEIN        CLOUDY   N/A N/A N/A SE20      30.09R
$$

...ELSEWHERE IN IOWA...


CITY           SKY/WX    TMP DP  RH WIND       PRES   REMARKS
DES MOINES     LGT RAIN  47  40  76 SE10G22   29.98F
IOWA CITY      CLOUDY    52  31  44 SE16      30.08F
FORT DODGE     CLOUDY    45  37  76 SE16G26   29.91F
MARSHALLTOWN   LGT RAIN  47  37  68 SE15      30.03R
CEDAR RAPIDS   CLOUDY    50  31  48 SE17      30.06F
$$

...NORTHERN ILLINOIS...


CITY           SKY/WX    TMP DP  RH WIND       PRES   REMARKS
CHICAGO-OHARE  PTSUNNY   50  25  37 E10G16    30.15F
DUPAGE         MOSUNNY   53  27  36 E5G17     30.13F
CHICAGO-MIDWAY PTSUNNY   50  28  42 N13       30.15F
MOLINE         PTSUNNY   57  28  33 SE10      30.09F
ROCKFORD       CLOUDY    54  27  35 VRB3      30.14F
STERLING       CLOUDY    54  30  40 SE8G16    30.11F
PEORIA         MOSUNNY   60  28  29 VRB5      30.09F
$$

NOTE: "FAIR" INDICATES FEW OR NO CLOUDS BELOW 12,000 FEET WITH NO
SIGNIFICANT WEATHER AND/OR OBSTRUCTIONS TO VISIBILITY. WIND
SPEEDS ARE IN MILES-PER-HOUR.



USA.gov is the U.S. government's official web portal to all federal, state and local government web resources and services.